Location: Boda
(47.1872°N, 9.5454°E)
Time: 09:27:24
(UTC+00:00)

Cosmos 2100 Rocket - Pass Details

Date: 14 May 2021
Orbit: 957 x 1000 km, 82.9° (Epoch: 16 June)

Event Time Altitude Azimuth Distance (km) Brightness Sun altitude
Rises 00:21:49 0° 352° (N) 3,695 8.1 -22.6°
Reaches altitude 10° 00:24:21 10° 356° (N) 2,749 7.3 -22.5°
Maximum altitude 00:30:39 68° 79° (ENE) 1,066 4.2 -22.2°
Enters shadow 00:33:57 30° 154° (SSE) 1,711 4.9 -22.0°
